Location: Domont
(49.0278°N, 2.3264°E)
Time: 13:17:18
(UTC+00:00)

Envisat - Pass Details

Date: 03 February 2022
Orbit: 764 x 765 km, 98.2° (Epoch: 17 May)

Event Time Altitude Azimuth Distance (km) Brightness Sun altitude
Rises 05:58:42 0° 6° (N) 3,244 6.2 -13.3°
Reaches altitude 10° 06:01:16 10° 355° (N) 2,314 5.3 -12.9°
Maximum altitude 06:05:34 28° 297° (WNW) 1,400 3.8 -12.2°
Drops below altitude 10° 06:09:51 10° 240° (WSW) 2,302 5.0 -11.5°
Sets 06:12:25 0° 229° (SW) 3,224 5.9 -11.1°
